Le nostre stazioni meteo in Italia

Pubblicità
Il mio iltempo24.it
Firenze/Peretola, Italia (16170): Temperatura & dewpoint: 12.03.2019 20:00:00 - 18.03.2019 20:00:00 (CET)Firenze/Peretola, Italia (16170): velocità del vento: 12.03.2019 20:00:00 - 18.03.2019 20:00:00 (CET)Firenze/Peretola, Italia (16170): direzione del vento: 12.03.2019 20:00:00 - 18.03.2019 20:00:00 (CET)Firenze/Peretola, Italia (16170): reduced air pressure: 12.03.2019 20:00:00 - 18.03.2019 20:00:00 (CET)Firenze/Peretola, Italia (16170): visibility: 12.03.2019 20:00:00 - 18.03.2019 20:00:00 (CET)Firenze/Peretola, Italia (16170): precipitazioni: 12.03.2019 20:00:00 - 18.03.2019 20:00:00 (CET)
Data & Tempo tt [°C] td [°C] ff [km/h] ff [kn] dd ppp [hPa] vv [km] rr [mm]
18.03.2019 20:00:00 10,0 3,0 8 4 - - 10 -
18.03.2019 19:00:00 10,8 2,7 8 4 S 1015,2 10 -
18.03.2019 18:00:00 11,0 5,0 15 8 E - 10 -
18.03.2019 17:00:00 12,0 7,0 16 9 E - 10 -
18.03.2019 16:00:00 12,9 6,1 13 7 E 1013,2 10 0,0
18.03.2019 15:00:00 13,0 7,0 13 7 E - 10 -
18.03.2019 14:00:00 12,0 9,0 15 8 ESE - 10 -
18.03.2019 13:00:00 11,8 8,0 15 8 ESE 1013,4 10 -
18.03.2019 12:00:00 12,0 9,0 15 8 E - 10 -
18.03.2019 11:00:00 11,0 9,0 9 5 ESE - 10 -
18.03.2019 10:00:00 11,6 9,5 5 3 SSE 1013,0 10 0,0
18.03.2019 09:00:00 11,0 10,0 2 1 - - 10 -
18.03.2019 08:00:00 13,0 8,0 16 9 SSE - 10 -
18.03.2019 07:00:00 13,1 8,0 15 8 SSE 1011,1 10 -
18.03.2019 06:00:00 13,0 8,0 13 7 S - 10 -
18.03.2019 05:00:00 12,0 8,0 5 3 SE - 10 -
18.03.2019 04:00:00 11,9 8,5 5 3 SSE 1011,4 10 0,0
18.03.2019 03:00:00 12,0 8,0 8 4 SSE - 10 -
18.03.2019 02:00:00 12,0 7,0 11 6 SE - 10 -
18.03.2019 01:00:00 12,4 7,7 8 4 SSE 1013,1 10 -
18.03.2019 00:00:00 12,0 8,0 5 3 S - 10 -
17.03.2019 23:00:00 13,0 8,0 8 4 SO - 10 -
17.03.2019 22:00:00 13,2 7,6 8 4 SSO 1013,9 10 0,0
17.03.2019 21:00:00 13,0 8,0 11 6 SSO - 10 -
17.03.2019 20:00:00 14,0 8,0 13 7 SO - 10 -
17.03.2019 19:00:00 15,0 8,0 15 8 OSO - 10 -
17.03.2019 18:00:00 16,0 9,0 18 10 O - 10 -
17.03.2019 17:00:00 17,0 9,0 22 12 OSO - 10 -
17.03.2019 16:00:00 18,6 7,6 15 8 OSO 1013,9 10 0,0
17.03.2019 15:00:00 19,0 8,0 9 5 OSO - 10 -
17.03.2019 14:00:00 17,0 8,0 8 4 O - 10 -
17.03.2019 13:00:00 17,7 7,6 9 5 S 1016,3 10 -
17.03.2019 12:00:00 16,0 8,0 11 6 SSE - 10 -
17.03.2019 11:00:00 15,0 8,0 9 5 S - 10 -
17.03.2019 10:00:00 14,7 8,7 5 3 - 1017,9 10 0,0
17.03.2019 09:00:00 14,0 8,0 5 3 SSE - 10 -
17.03.2019 08:00:00 13,0 10,0 4 2 NE - 10 -
17.03.2019 07:00:00 11,7 9,1 2 1 NNO 1017,7 10 -
17.03.2019 06:00:00 12,0 9,0 4 2 - - 10 -
17.03.2019 05:00:00 12,0 9,0 4 2 SE - 10 -
17.03.2019 04:00:00 12,6 8,5 2 1 - 1018,0 10 0,0
17.03.2019 03:00:00 12,0 9,0 4 2 SSO - 10 -
17.03.2019 02:00:00 12,0 9,0 4 2 SSE - 10 -
17.03.2019 01:00:00 12,1 8,3 8 4 SSE 1019,0 10 -
17.03.2019 00:00:00 13,0 8,0 5 3 S - 10 -
16.03.2019 23:00:00 14,0 8,0 9 5 SSE - 10 -
16.03.2019 22:00:00 14,6 8,9 5 3 S 1019,3 10 0,0
16.03.2019 21:00:00 15,0 9,0 13 7 SSO - 10 -
16.03.2019 20:00:00 15,0 10,0 9 5 SSO - 10 -
16.03.2019 19:00:00 16,0 10,0 15 8 SO 1017,5 10 -
16.03.2019 18:00:00 18,0 10,0 22 12 OSO - 10 -
16.03.2019 17:00:00 21,0 7,0 15 8 SO - 10 -
16.03.2019 16:00:00 21,9 5,9 11 6 O 1015,6 10 0,0
16.03.2019 15:00:00 21,0 6,0 11 6 OSO - 10 -
16.03.2019 14:00:00 20,0 7,0 4 2 - - 10 -
16.03.2019 13:00:00 19,2 7,7 9 5 - 1017,6 10 -
16.03.2019 12:00:00 18,0 9,0 4 2 - - 10 -
16.03.2019 11:00:00 15,0 8,0 4 2 - - 10 -
16.03.2019 10:00:00 13,5 7,9 4 2 - 1018,4 10 0,0
16.03.2019 09:00:00 12,0 8,0 2 1 - - 10 -
16.03.2019 08:00:00 8,0 7,0 2 1 SSE - 10 -
16.03.2019 07:00:00 6,8 6,2 0 0 N 1017,3 10 -
16.03.2019 06:00:00 7,0 6,0 2 1 E - 10 -
16.03.2019 05:00:00 8,0 6,0 4 2 S - 10 -
16.03.2019 04:00:00 8,4 6,4 2 1 - 1016,3 10 0,0
16.03.2019 03:00:00 10,0 7,0 9 5 ESE - 10 -
16.03.2019 02:00:00 10,0 7,0 8 4 E - 10 -
16.03.2019 01:00:00 9,4 6,8 4 2 SE 1016,6 10 -
16.03.2019 00:00:00 10,0 7,0 5 3 E - 10 -
15.03.2019 23:00:00 10,0 7,0 5 3 E - 10 -
15.03.2019 22:00:00 10,3 6,9 8 4 E 1016,3 10 0,0
15.03.2019 21:00:00 11,0 7,0 4 2 - - 10 -
15.03.2019 20:00:00 14,0 7,0 8 4 SO - 10 -
15.03.2019 19:00:00 13,7 7,6 4 2 - 1014,5 10 -
15.03.2019 18:00:00 16,0 8,0 11 6 SO - 10 -
15.03.2019 17:00:00 17,0 8,0 21 11 SO - 10 -
15.03.2019 16:00:00 17,5 6,5 26 14 OSO 1013,4 10 0,0
15.03.2019 15:00:00 19,0 7,0 21 11 O - 10 -
15.03.2019 14:00:00 18,0 9,0 21 11 SO - 10 -
15.03.2019 13:00:00 18,7 8,2 18 10 SO 1013,6 10 -
15.03.2019 12:00:00 16,0 8,0 15 8 OSO - 10 -
15.03.2019 11:00:00 15,0 9,0 13 7 SO - 10 -
15.03.2019 10:00:00 14,0 8,4 5 3 - 1013,8 10 0,0
15.03.2019 09:00:00 13,0 9,0 4 2 - - 10 -
15.03.2019 08:00:00 9,0 7,0 4 2 - - 10 -
15.03.2019 07:00:00 6,9 5,6 4 2 - 1012,2 10 -
15.03.2019 06:00:00 10,0 8,0 8 4 E - 10 -
15.03.2019 05:00:00 10,0 7,0 5 3 E - 10 -
15.03.2019 04:00:00 9,3 7,3 8 4 ENE 1010,7 10 0,0
15.03.2019 03:00:00 10,0 7,0 4 2 ENE - 10 -
15.03.2019 02:00:00 11,0 7,0 4 2 - - 10 -
15.03.2019 01:00:00 10,4 6,1 8 4 E 1011,0 10 -
15.03.2019 00:00:00 11,0 5,0 8 4 ESE - 10 -
14.03.2019 23:00:00 10,0 5,0 8 4 S - 10 -
14.03.2019 22:00:00 11,2 4,9 9 5 S 1011,9 10 0,0
14.03.2019 21:00:00 11,0 5,0 9 5 SSO - 10 -
14.03.2019 20:00:00 12,0 5,0 11 6 O - 10 -
14.03.2019 19:00:00 12,3 4,5 11 6 SO 1012,6 10 -
14.03.2019 18:00:00 13,0 4,0 16 9 OSO - 10 -
14.03.2019 17:00:00 15,0 4,0 16 9 OSO - 10 -
14.03.2019 16:00:00 16,3 3,6 18 10 OSO 1012,2 10 0,0
14.03.2019 15:00:00 - - - - - - - -
14.03.2019 14:00:00 16,0 1,0 11 6 O - 10 -
14.03.2019 13:00:00 15,1 1,7 5 3 - 1014,7 10 -
14.03.2019 12:00:00 13,0 1,0 4 2 - - 10 -
14.03.2019 11:00:00 11,0 4,0 4 2 - - 10 -
14.03.2019 10:00:00 8,8 3,3 4 2 - 1016,2 10 0,0
14.03.2019 09:00:00 6,0 3,0 2 1 - - 10 -
14.03.2019 08:00:00 2,0 2,0 4 2 - - 10 -
14.03.2019 07:00:00 1,4 1,1 4 2 - 1015,8 10 -
14.03.2019 06:00:00 1,0 0,0 5 3 NE - 10 -
14.03.2019 05:00:00 2,0 1,0 2 1 - - 10 -
14.03.2019 04:00:00 2,4 1,1 4 2 - 1014,4 10 0,0
14.03.2019 03:00:00 5,0 2,0 2 1 - - 10 -
14.03.2019 02:00:00 5,0 2,0 5 3 - - 10 -
14.03.2019 01:00:00 6,7 2,2 4 2 - 1014,1 10 -
14.03.2019 00:00:00 7,0 4,0 8 4 - - 10 -
13.03.2019 23:00:00 6,0 6,0 5 3 - - 10 -
13.03.2019 22:00:00 6,4 5,8 4 2 - 1012,1 10 0,0
13.03.2019 21:00:00 7,0 6,0 4 2 - - 10 -
13.03.2019 20:00:00 8,0 7,0 5 3 O - 10 -
13.03.2019 19:00:00 8,1 7,2 2 1 - 1011,9 10 -
13.03.2019 18:00:00 9,0 8,0 5 3 O - 10 -
13.03.2019 17:00:00 10,0 8,0 4 2 - - 10 -
13.03.2019 16:00:00 9,5 7,7 8 4 O 1012,0 10 0,0
13.03.2019 15:00:00 9,0 8,0 9 5 O - 10 -
13.03.2019 14:00:00 9,0 8,0 2 1 - - 6 -
13.03.2019 13:00:00 7,8 7,1 8 4 ONO 1013,8 6 -
13.03.2019 12:00:00 7,0 6,0 2 1 - - 6 -
13.03.2019 11:00:00 6,0 5,0 5 3 O - 6 -
13.03.2019 10:00:00 5,4 5,0 8 4 O 1016,1 5 0,0
13.03.2019 09:00:00 5,0 4,0 4 2 O - 4,0 -
13.03.2019 08:00:00 5,0 4,0 4 2 - - 3,5 -
13.03.2019 07:00:00 5,5 3,6 4 2 - 1016,8 7 -
13.03.2019 06:00:00 6,0 1,0 5 3 SSE - 10 -
13.03.2019 05:00:00 5,0 1,0 11 6 SE - 10 -
13.03.2019 04:00:00 3,6 0,0 8 4 ESE 1018,8 10 0,0
13.03.2019 03:00:00 5,0 0,0 11 6 ESE - 10 -
13.03.2019 02:00:00 5,0 0,0 5 3 E - 10 -
13.03.2019 01:00:00 4,8 -1,4 9 5 E 1021,3 10 -
13.03.2019 00:00:00 5,0 -2,0 9 5 E - 10 -
12.03.2019 23:00:00 6,0 -2,0 9 5 E - 10 -
12.03.2019 22:00:00 5,5 -3,0 11 6 E 1022,1 10 0,0
12.03.2019 21:00:00 7,0 -4,0 5 3 S - 10 -
12.03.2019 20:00:00 10,0 -6,0 2 1 - - 10 -

tt = Temperatura
td = dewpoint
ff = velocità del vento
dd = direzione del vento
ppp = reduced air pressure
vv = visibility
rr = precipitazioni

Stazioni seguenti

WeatherPro
AMSI
MeteoEarth